User: anonymous   Login
Location: Unspecified
(0.0000°N, 0.0000°E)
Time: 17:25:38
(UTC+00:00)
Language:

FALCON 9 R/B - Orbit

View from above orbital plane
View from above orbital plane
View from above satellite
View from above satellite

Ground track
Ground track

The orbit data is extracted from the following two-line orbital elements,

1 41590U 16038C   20022.09001462 -.00000478  00000-0  31567-3 0  9990
2 41590  25.0623  66.1537 8185974 227.0812  27.2783  1.18359308 15510
Epoch (UTC): 22 January 2020 02:09:37
Eccentricity: 0.8185974
inclination: 25.0623°
perigee height: 470 km
apogee height: 62276 km
right ascension of ascending node: 66.1537°
argument of perigee: 227.0812°
revolutions per day: 1.18359308
mean anomaly at epoch: 27.2783°
orbit number at epoch: 1551

The dashed part of the orbit path shows where the satellite is in the earth's shadow,  

DLR